Regional Weather Roundup
Issued by NWS

Home | Current Version | Previous Version | Graphics & Text | Print | Product List | Glossary On
Versions: 1 2 3 4 5 6 7 8 9 10 11 12 13 14 15 16 17 18 19 20 21 22 23 24 25 26 27 28 29 30 31 32 33 34 35 36 37 38 39 40 41 42 43 44 45 46 47 48 49 50
000
ASUS43 KLOT 271010
RWRIL

ILLINOIS REGIONAL WEATHER ROUNDUP
NATIONAL WEATHER SERVICE CHICAGO/ROMEOVILLE IL
400 AM CST FRI FEB 27 2015

NOTE: "FAIR" INDICATES FEW OR NO CLOUDS BELOW 12,000 FEET WITH NO
SIGNIFICANT WEATHER AND/OR OBSTRUCTIONS TO VISIBILITY.

* THESE STATIONS ARE NOT UNDER NWS QUALITY CONTROL. THEY ALSO MAY NOT
  REPORT WEATHER SUCH AS PRECIPITATION OR FOG.

ILZ001-002-007-009-015-016-024-271100-
NORTHWEST ILLINOIS

CITY           SKY/WX    TMP DP  RH WIND       PRES   REMARKS
MOLINE         PTCLDY   -10 -15  78 W7        30.55R WCI -25
STERLING*      CLEAR    -11 -17  77 CALM      30.51S
SAVANNA*       CLEAR    -15 -21  76 CALM      30.53R
$$

ILZ003-004-008-010-011-017-018-271100-
NORTH CENTRAL ILLINOIS

CITY           SKY/WX    TMP DP  RH WIND       PRES   REMARKS
ROCKFORD       CLEAR    -11 -17  75 CALM      30.50S
FREEPORT*      CLEAR    -11 -15  81 CALM      30.51R
ROCHELLE*      CLEAR    -17 -21  83 S3        30.50S
DE KALB*       CLEAR     -7 -12  77 NW7       30.47S WCI -21
PERU*          CLEAR     -6 -11  77 CALM      30.52R
$$

ILZ005-006-012>014-019>023-271100-
NORTHEAST ILLINOIS

CITY           SKY/WX    TMP DP  RH WIND       PRES   REMARKS
CHICAGO-OHARE  CLEAR      2  -8  63 NW10      30.47R WCI -14
CHICAGO-MIDWAY CLEAR      4  -5  66 NW7       30.48R WCI  -8
AURORA         CLEAR    -10 -17  71 W5        30.49R WCI -22
LANSING*       MOCLDY     1  -6  72 W6        30.47R WCI -10
JOLIET*        CLEAR     -5 -11  77 CALM      30.50R
WAUKEGAN       CLEAR     -2  -9  72 W6        30.46R WCI -14
DUPAGE AIRPORT CLEAR     -3 -10  72 CALM      30.46S
KANKAKEE*      CLEAR     -6 -10  81 W7        30.50R WCI -20
WHEELING       CLEAR      1  -8  66 NW6       30.49R WCI -10
MORRIS*        CLEAR    -12 -16  82 CALM      30.50R
ROMEOVILLE*    CLEAR     -5 -10  78 NW5       30.49R WCI -16
NORTHERLY ISL    N/A      9  -2  61 W6          N/A  WCI  -1
$$

LMZ740>746-271100-
SOUTHERN LAKE MICHIGAN

STATION/POSITION SKY/WX   TEMP    WIND        PRES    VSBY  WAVE
                          AIR SEA DIR/SP/G                  HT/PER
                          (F)     (DEG/KT/KT) (MB)    (MI)  (FT/S)
WAUKEGAN HARBOR             3     300/  9/ 13   N/A
HARRISON CRIB               8     310/ 13/ 16   N/A
BURNHAM HARBOR              9     270/  5/ 11   N/A
CALUMET HARBOR              7     280/  6/  9 1030.5R
MICHIGAN CITY               7      50/  4/  5   N/A
$$

ILZ025>027-034>036-040-047-049-050-058-095>099-271100-
WEST-CENTRAL ILLINOIS

CITY           SKY/WX    TMP DP  RH WIND       PRES   REMARKS
QUINCY         CLEAR     -6 -11  79 W6        30.56S WCI -19
GALESBURG*     PTCLDY   -12 -15  85 W6        30.53R WCI -26
MACOMB*        CLEAR    -10 -14  81 W10       30.57R WCI -28
JACKSONVILLE*  CLEAR     -5 -10  79 W5        30.57R WCI -16
PITTSFIELD*    PTCLDY    -1  -8  74 NW6       30.57S WCI -13
$$

ILZ028>032-037-038-041>044-048-051>054-059>061-271100-
CENTRAL ILLINOIS

CITY           SKY/WX    TMP DP  RH WIND       PRES   REMARKS
PONTIAC        CLEAR     -3  -8  81 W7        30.51S WCI -17
BLOOMINGTON    CLEAR     -3  -9  75 NW9       30.50R WCI -19
DECATUR        CLEAR      1  -6  72 NW9       30.52R WCI -14
PEORIA         CLEAR     -4 -10  75 NW5       30.54S WCI -15
LACON*         CLEAR     -8 -13  79 CALM      30.54R
LINCOLN*       CLEAR      0  -6  76 NW5       30.57S WCI -10
SPRINGFIELD    CLEAR     -4 -10  75 W5        30.56R WCI -15
TAYLORVILLE    CLEAR      0  -6  78 NW5       30.54S WCI -10
$$

ILZ033-039-045-046-055>057-062-063-271100-
EAST-CENTRAL ILLINOIS

CITY           SKY/WX    TMP DP  RH WIND       PRES   REMARKS
CHAMPAIGN      MOCLDY    -1  -6  79 W8        30.50R WCI -15
DANVILLE*      CLEAR      1  -6  73 NW6       30.46R WCI -10
RANTOUL*       CLEAR      0  -6  78 NW9       30.49R WCI -16
MATTOON        CLOUDY     5  -2  72 NW12      30.50R WCI -11
PARIS*         CLOUDY     7   1  76 NW6       30.51R WCI  -4
$$

ILZ079-100>102-271100-
SOUTHWEST ILLINOIS

CITY           SKY/WX    TMP DP  RH WIND       PRES   REMARKS
ALTON          CLEAR      2  -7  66 NW7       30.57S WCI -11
BELLEVILLE     CLEAR      5  -3  71 NW9       30.57R WCI  -9
CAHOKIA*         N/A      6  -3  66 N9        30.59R WCI  -8
SPARTA*        CLOUDY     8   0  70 N8        30.57R WCI  -5
$$

ILZ064>066-069>071-074>076-080>082-084>086-088>090-092>094-271100-
SOUTH-CENTRAL ILLINOIS

CITY           SKY/WX    TMP DP  RH WIND       PRES   REMARKS
CARBONDALE     FLURRIES  10   1  67 N10       30.57R WCI  -4
CAIRO*         CLEAR     16   8  68 N5        30.55R WCI   9
EFFINGHAM*     PTCLDY     6  -3  66 NW12      30.54S WCI -10
MARION         CLOUDY    12   5  73 N6        30.56R WCI   3
MT. VERNON     CLEAR      9  -2  61 N3        30.54R
CENTRALIA*     CLEAR      6  -1  71 NW8       30.55R WCI  -7
SALEM*         PTCLDY     6  -1  71 NW6       30.55R WCI  -4
METROPOLIS*    PTCLDY    15  10  81 N10       30.52R WCI   2
$$

ILZ067-068-072-073-078-083-087-091-271100-
SOUTHEAST ILLINOIS

CITY           SKY/WX    TMP DP  RH WIND       PRES   REMARKS
LAWRENCEVILLE  CLOUDY    10   2  69 NW7       30.53R WCI  -1
FLORA*         FLURRIES   7   3  82 NW9       30.54R WCI  -6
FAIRFIELD*     FLURRIES  11   6  82 NW3       30.54R
HARRISBURG*    FLURRIES  14  10  82 NW7       30.56R WCI   4
ROBINSON*      CLOUDY     9   3  76 NW6       30.53R WCI  -1
CARMI*         FLURRIES  16  12  86 N10       30.53R WCI   3
$$

ABBREVIATIONS USED IN REMARKS
   TC - TEMPERATURE IN CELSIUS
  WCI - WIND CHILL INDEX
   HX - HEAT INDEX
  VSB - VISIBILITY
$$



USA.gov is the U.S. government's official web portal to all federal, state and local government web resources and services.